sat.trackr.live / text

‹ back to catalog

ICEYE-X40

NORAD 60549 · 2024-149CK

PAYLOAD ACTIVE UNKNOWN

§ Identity

Operator
Country
UAE
Launch date
2024-08-16
Launch site
AFWTR
Launch vehicle
Mass (kg)
RCS (m²)

External: N2YO · Heavens-Above · Gunter

§ Orbital elements

Epoch: 2026-09-22T16:20:47.935104Z

Period
96.10 min
Inclination
97.6725°
Eccentricity
0.0006060
Mean motion
14.98428451 rev/d
Perigee alt
567.5 km
Apogee alt
576.0 km
Semi-major
6,949.9 km
B*
2.1240e-4
RAAN
340.6014°
Arg perigee
110.8695°
Mean anomaly
249.3177°
Rev number
11,467

§ Raw data

ICEYE-X401 60549U 24149CK  26265.68111036  .00002478  00000+0  21240-3 0  99932 60549  97.6725 340.6014 0006060 110.8695 249.3177 14.98428451114670

JSON: /api/v1/satellites/60549 · /tle

For live sub-satellite position, see the globe view (requires WebGL).

§ Visibility from observer

Set your observer location to see the next 7 days of passes ≥ 10°. The values pass through the URL so the page stays shareable.

No JS? Fill the form by hand. The geolocation button needs JavaScript.

§ Radio — SatNOGS DB

ModeDescriptionDownlinkUplink
FM Mode S - Transmitter 2.270 GHz

1 transmitter · refreshed weekly from db.satnogs.org